01-01-2022, 00:00:01,    160,    0.1,   10.1,   0.00,   0.00, 1015.0,   98.7, -999.0
01-01-2022, 00:00:11,    160,    0.0,   10.2,   0.00,   0.00, 1015.0,   98.9, -999.0
01-01-2022, 00:00:21,    160,    0.5,   10.2,   0.00,   0.00, 1015.1,   99.0, -999.0
01-01-2022, 00:00:33,    160,    0.0,   10.2,   0.00,   0.00, 1014.9,   98.6, -999.0
01-01-2022, 00:00:41,    160,    0.1,   10.1,   0.00,   0.00, 1015.0,   98.8, -999.0
01-01-2022, 00:00:51,    160,    0.0,   10.2,   0.00,   0.00, 1014.9,   98.7, -999.0
01-01-2022, 00:01:00,    160,    0.2,   10.2,   0.00,   0.00, 1015.1,   98.9, -999.0
01-01-2022, 00:01:11,    160,    0.0,   10.2,   0.00,   0.00, 1014.9,   98.6, -999.0
01-01-2022, 00:01:20,    160,    0.3,   10.3,   0.00,   0.00, 1015.0,   98.8, -999.0
01-01-2022, 00:01:30,    160,    0.6,   10.2,   0.00,   0.00, 1015.1,   99.1, -999.0
01-01-2022, 00:01:40,    160,    0.2,   10.3,   0.00,   0.00, 1015.0,   99.1, -999.0
01-01-2022, 00:01:50,    159,    0.0,   10.3,   0.00,   0.00, 1014.9,   98.7, -999.0
01-01-2022, 00:02:00,    159,    0.0,   10.2,   0.00,   0.00, 1014.9,   98.6, -999.0
01-01-2022, 00:02:10,    159,    0.0,   10.1,   0.00,   0.00, 1015.0,   98.9, -999.0
01-01-2022, 00:02:20,    160,    0.0,   10.2,   0.00,   0.00, 1014.9,   98.7, -999.0
01-01-2022, 00:02:30,    160,    0.6,   10.3,   0.00,   0.00, 1015.0,   98.9, -999.0
01-01-2022, 00:02:40,    160,    0.2,   10.2,   0.00,   0.00, 1015.0,   98.9, -999.0
01-01-2022, 00:02:50,    159,    0.3,   10.2,   0.00,   0.00, 1015.0,   98.8, -999.0
01-01-2022, 00:03:00,    160,    0.0,   10.2,   0.00,   0.00, 1014.9,   98.6, -999.0
01-01-2022, 00:03:10,    160,    0.0,   10.3,   0.00,   0.00, 1014.9,   98.7, -999.0
01-01-2022, 00:03:20,    159,    0.0,   10.2,   0.00,   0.00, 1014.9,   98.7, -999.0
01-01-2022, 00:03:30,    160,    0.7,   10.2,   0.00,   0.00, 1015.0,   99.0, -999.0
01-01-2022, 00:03:40,    159,    1.2,   10.3,   0.00,   0.00, 1015.1,   98.9, -999.0
01-01-2022, 00:03:50,    159,    0.5,   10.2,   0.00,   0.00, 1015.1,   99.1, -999.0
01-01-2022, 00:03:59,    159,    0.0,   10.1,   0.00,   0.00, 1014.9,   98.7, -999.0
01-01-2022, 00:04:09,    159,    0.0,   10.1,   0.00,   0.00, 1014.9,   98.6, -999.0
01-01-2022, 00:04:20,    159,    0.0,   10.1,   0.00,   0.00, 1014.9,   98.6, -999.0
01-01-2022, 00:04:29,    159,    0.2,   10.2,   0.00,   0.00, 1015.0,   98.9, -999.0
01-01-2022, 00:04:39,    159,    0.1,   10.2,   0.00,   0.00, 1015.0,   98.8, -999.0
01-01-2022, 00:04:50,    159,    0.4,   10.3,   0.00,   0.00, 1015.1,   99.0, -999.0
01-01-2022, 00:04:59,    159,    0.3,   10.3,   0.00,   0.00, 1015.0,   99.0, -999.0
01-01-2022, 00:05:09,    160,    0.9,   10.3,   0.00,   0.00, 1015.1,   99.1, -999.0
01-01-2022, 00:05:19,    159,    0.4,   10.2,   0.00,   0.00, 1015.1,   98.9, -999.0
01-01-2022, 00:05:29,    159,    0.1,   10.2,   0.00,   0.00, 1015.0,   99.0, -999.0
01-01-2022, 00:05:39,    159,    0.5,   10.2,   0.00,   0.00, 1015.0,   99.0, -999.0
01-01-2022, 00:05:49,    159,    0.4,   10.2,   0.00,   0.00, 1015.0,   98.9, -999.0
01-01-2022, 00:05:59,    159,    0.5,   10.3,   0.00,   0.00, 1015.1,   99.0, -999.0
01-01-2022, 00:06:09,    159,    0.4,   10.3,   0.00,   0.00, 1015.0,   99.0, -999.0
01-01-2022, 00:06:19,    159,    0.9,   10.3,   0.00,   0.00, 1014.9,   99.0, -999.0
01-01-2022, 00:06:29,    159,    0.3,   10.3,   0.00,   0.00, 1014.9,   98.9, -999.0
01-01-2022, 00:06:39,    158,    0.5,   10.3,   0.00,   0.00, 1014.9,   99.2, -999.0
01-01-2022, 00:06:49,    159,    0.5,   10.3,   0.00,   0.00, 1014.9,   99.0, -999.0
01-01-2022, 00:06:59,    159,    0.0,   10.2,   0.00,   0.00, 1014.8,   98.7, -999.0
01-01-2022, 00:07:08,    159,    0.0,   10.2,   0.00,   0.00, 1014.8,   98.6, -999.0
01-01-2022, 00:07:19,    159,    0.0,   10.3,   0.00,   0.00, 1014.8,   98.7, -999.0
01-01-2022, 00:07:29,    159,    0.0,   10.2,   0.00,   0.00, 1014.7,   98.6, -999.0
01-01-2022, 00:07:38,    159,    0.0,   10.2,   0.00,   0.00, 1014.7,   98.6, -999.0
01-01-2022, 00:07:48,    159,    0.0,   10.2,   0.00,   0.00, 1014.7,   98.6, -999.0
01-01-2022, 00:07:58,    158,    0.0,   10.1,   0.00,   0.00, 1014.7,   98.6, -999.0
01-01-2022, 00:08:08,    159,    0.0,   10.2,   0.00,   0.00, 1014.7,   98.7, -999.0
01-01-2022, 00:08:18,    158,    0.0,   10.2,   0.00,   0.00, 1014.7,   98.7, -999.0
01-01-2022, 00:08:28,    159,    0.0,   10.2,   0.00,   0.00, 1014.8,   98.8, -999.0
01-01-2022, 00:08:38,    159,    0.1,   10.2,   0.00,   0.00, 1014.7,   98.7, -999.0
01-01-2022, 00:08:48,    159,    0.0,   10.2,   0.00,   0.00, 1014.7,   98.7, -999.0
01-01-2022, 00:08:58,    158,    0.0,   10.2,   0.00,   0.00, 1014.7,   98.7, -999.0
01-01-2022, 00:09:08,    159,    0.1,   10.3,   0.00,   0.00, 1014.7,   98.8, -999.0
01-01-2022, 00:09:18,    128,    1.8,   10.4,   0.00,   0.00, 1014.9,   99.1, -999.0
01-01-2022, 00:09:28,    188,    1.7,   10.4,   0.00,   0.00, 1014.9,   99.0, -999.0
01-01-2022, 00:09:38,    146,    1.3,   10.3,   0.00,   0.00, 1014.9,   99.0, -999.0
01-01-2022, 00:09:48,    160,    3.5,   10.3,   0.00,   0.00, 1014.9,   99.0, -999.0
01-01-2022, 00:09:58,    179,    1.5,   10.3,   0.00,   0.00, 1014.9,   99.1, -999.0
01-01-2022, 00:10:08,    166,    0.6,   10.3,   0.00,   0.00, 1014.9,   99.2, -999.0
01-01-2022, 00:10:17,    166,    0.4,   10.3,   0.00,   0.00, 1014.8,   98.9, -999.0
01-01-2022, 00:10:28,    166,    0.1,   10.3,   0.00,   0.00, 1014.8,   98.8, -999.0
01-01-2022, 00:10:37,    166,    0.0,   10.3,   0.00,   0.00, 1014.7,   98.6, -999.0
01-01-2022, 00:10:47,    166,    0.0,   10.3,   0.00,   0.00, 1014.7,   98.6, -999.0
01-01-2022, 00:10:57,    166,    0.0,   10.2,   0.00,   0.00, 1014.8,   98.6, -999.0
01-01-2022, 00:11:07,    166,    0.1,   10.2,   0.00,   0.00, 1014.8,   98.8, -999.0
01-01-2022, 00:11:17,    166,    0.2,   10.2,   0.00,   0.00, 1014.8,   98.9, -999.0
01-01-2022, 00:11:27,    166,    0.0,   10.2,   0.00,   0.00, 1014.8,   98.8, -999.0
01-01-2022, 00:11:37,    166,    0.0,   10.2,   0.00,   0.00, 1014.7,   98.6, -999.0
01-01-2022, 00:11:47,    166,    0.0,   10.2,   0.00,   0.00, 1014.7,   98.7, -999.0
01-01-2022, 00:11:57,    191,    0.4,   10.3,   0.00,   0.00, 1014.8,   99.0, -999.0
01-01-2022, 00:12:07,    192,    0.1,   10.2,   0.00,   0.00, 1014.7,   98.7, -999.0
01-01-2022, 00:12:17,    191,    0.7,   10.3,   0.00,   0.00, 1014.9,   99.0, -999.0
01-01-2022, 00:12:27,    191,    0.0,   10.2,   0.00,   0.00, 1014.8,   98.8, -999.0
01-01-2022, 00:12:37,    191,    0.4,   10.2,   0.00,   0.00, 1014.8,   98.8, -999.0
01-01-2022, 00:12:47,    191,    0.3,   10.2,   0.00,   0.00, 1014.8,   98.9, -999.0
01-01-2022, 00:12:57,    191,    0.3,   10.3,   0.00,   0.00, 1014.8,   98.8, -999.0
01-01-2022, 00:13:07,    186,    1.1,   10.3,   0.00,   0.00, 1014.9,   99.0, -999.0
01-01-2022, 00:13:16,    126,    1.0,   10.3,   0.00,   0.00, 1014.8,   99.1, -999.0
01-01-2022, 00:13:26,    125,    0.5,   10.3,   0.00,   0.00, 1014.8,   99.1, -999.0
01-01-2022, 00:13:37,    128,    0.0,   10.2,   0.00,   0.00, 1014.7,   98.6, -999.0
01-01-2022, 00:13:46,    128,    0.0,   10.2,   0.00,   0.00, 1014.7,   98.6, -999.0
01-01-2022, 00:13:56,    185,    0.4,   10.3,   0.00,   0.00, 1014.8,   99.0, -999.0
01-01-2022, 00:14:07,    184,    0.7,   10.3,   0.00,   0.00, 1014.8,   98.9, -999.0
01-01-2022, 00:14:16,    184,    0.8,   10.3,   0.00,   0.00, 1014.9,   99.2, -999.0
01-01-2022, 00:14:26,    184,    0.2,   10.3,   0.00,   0.00, 1014.8,   98.8, -999.0
01-01-2022, 00:14:36,    184,    0.2,   10.3,   0.00,   0.00, 1014.8,   99.0, -999.0
01-01-2022, 00:14:46,    184,    0.9,   10.3,   0.00,   0.00, 1014.9,   99.0, -999.0
01-01-2022, 00:14:56,    183,    0.1,   10.3,   0.00,   0.00, 1014.8,   98.8, -999.0
01-01-2022, 00:15:06,    183,    0.9,   10.3,   0.00,   0.00, 1014.8,   99.1, -999.0
01-01-2022, 00:15:16,    183,    0.7,   10.4,   0.00,   0.00, 1014.9,   99.1, -999.0
01-01-2022, 00:15:26,    168,    0.6,   10.3,   0.00,   0.00, 1014.9,   99.0, -999.0
01-01-2022, 00:15:36,    156,    0.9,   10.4,   0.00,   0.00, 1014.8,   99.0, -999.0
01-01-2022, 00:15:46,    161,    0.3,   10.3,   0.00,   0.00, 1014.8,   98.8, -999.0
01-01-2022, 00:15:56,    188,    0.5,   10.3,   0.00,   0.00, 1014.8,   99.0, -999.0
01-01-2022, 00:16:06,    172,    1.3,   10.3,   0.00,   0.00, 1014.9,   99.2, -999.0
01-01-2022, 00:16:16,    172,    0.3,   10.3,   0.00,   0.00, 1014.8,   99.0, -999.0
01-01-2022, 00:16:25,    171,    1.0,   10.3,   0.00,   0.00, 1014.9,   99.0, -999.0
01-01-2022, 00:16:36,    171,    0.9,   10.4,   0.00,   0.00, 1014.9,   98.9, -999.0
01-01-2022, 00:16:46,    171,    0.3,   10.2,   0.00,   0.00, 1014.8,   98.7, -999.0
01-01-2022, 00:16:55,    171,    0.4,   10.3,   0.00,   0.00, 1014.9,   99.2, -999.0
01-01-2022, 00:17:05,    171,    0.0,   10.2,   0.00,   0.00, 1014.8,   99.0, -999.0
01-01-2022, 00:17:15,    171,    0.0,   10.2,   0.00,   0.00, 1014.7,   98.6, -999.0
01-01-2022, 00:17:25,    141,    0.7,   10.3,   0.00,   0.00, 1014.8,   98.9, -999.0
01-01-2022, 00:17:35,    135,    1.5,   10.3,   0.00,   0.00, 1014.9,   99.0, -999.0
01-01-2022, 00:17:45,    135,    0.4,   10.3,   0.00,   0.00, 1014.9,   99.0, -999.0
01-01-2022, 00:17:55,    135,    0.0,   10.2,   0.00,   0.00, 1014.7,   98.6, -999.0
01-01-2022, 00:18:05,    135,    0.0,   10.3,   0.00,   0.00, 1014.7,   98.6, -999.0
01-01-2022, 00:18:15,    135,    0.0,   10.3,   0.00,   0.00, 1014.7,   98.7, -999.0
01-01-2022, 00:18:25,    135,    0.0,   10.3,   0.00,   0.00, 1014.7,   98.7, -999.0
01-01-2022, 00:18:35,    135,    0.0,   10.3,   0.00,   0.00, 1014.7,   98.6, -999.0
01-01-2022, 00:18:45,    136,    0.0,   10.2,   0.00,   0.00, 1014.7,   98.8, -999.0
01-01-2022, 00:18:55,    135,    0.0,   10.2,   0.00,   0.00, 1014.7,   98.8, -999.0
01-01-2022, 00:19:05,    135,    0.0,   10.3,   0.00,   0.00, 1014.7,   98.8, -999.0
01-01-2022, 00:19:15,    135,    0.0,   10.3,   0.00,   0.00, 1014.7,   98.6, -999.0
01-01-2022, 00:19:25,    135,    0.0,   10.3,   0.00,   0.00, 1014.7,   98.6, -999.0
01-01-2022, 00:19:34,    135,    0.0,   10.3,   0.00,   0.00, 1014.7,   98.6, -999.0
01-01-2022, 00:19:45,    135,    0.0,   10.3,   0.00,   0.00, 1014.7,   98.7, -999.0
01-01-2022, 00:19:54,    135,    0.0,   10.3,   0.00,   0.00, 1014.7,   98.7, -999.0
01-01-2022, 00:20:04,    135,    0.0,   10.3,   0.00,   0.00, 1014.7,   98.6, -999.0
01-01-2022, 00:20:15,    135,    0.0,   10.2,   0.00,   0.00, 1014.7,   98.6, -999.0
01-01-2022, 00:20:24,    135,    0.0,   10.3,   0.00,   0.00, 1014.7,   98.7, -999.0
01-01-2022, 00:20:34,    135,    0.0,   10.3,   0.00,   0.00, 1014.7,   98.7, -999.0
01-01-2022, 00:20:44,    135,    0.0,   10.2,   0.00,   0.00, 1014.7,   98.7, -999.0
01-01-2022, 00:20:54,    135,    0.0,   10.3,   0.00,   0.00, 1014.7,   98.7, -999.0
01-01-2022, 00:21:04,    135,    0.0,   10.3,   0.00,   0.00, 1014.7,   98.7, -999.0
01-01-2022, 00:21:14,    135,    0.0,   10.3,   0.00,   0.00, 1014.7,   98.7, -999.0
01-01-2022, 00:21:24,    135,    0.0,   10.3,   0.00,   0.00, 1014.7,   98.6, -999.0
01-01-2022, 00:21:34,    135,    0.0,   10.3,   0.00,   0.00, 1014.7,   98.6, -999.0
01-01-2022, 00:21:44,    135,    0.0,   10.3,   0.00,   0.00, 1014.7,   98.7, -999.0
01-01-2022, 00:21:54,    135,    0.0,   10.3,   0.00,   0.00, 1014.7,   98.8, -999.0
01-01-2022, 00:22:04,    135,    0.2,   10.3,   0.00,   0.00, 1014.8,   98.8, -999.0
01-01-2022, 00:22:14,    171,    0.4,   10.3,   0.00,   0.00, 1014.8,   98.8, -999.0
01-01-2022, 00:22:24,    170,    0.2,   10.3,   0.00,   0.00, 1014.8,   98.9, -999.0
01-01-2022, 00:22:33,    170,    0.0,   10.3,   0.00,   0.00, 1014.7,   98.7, -999.0
01-01-2022, 00:22:44,    171,    1.0,   10.3,   0.00,   0.00, 1014.8,   98.8, -999.0
01-01-2022, 00:22:54,    170,    2.0,   10.4,   0.00,   0.00, 1014.9,   99.2, -999.0
01-01-2022, 00:23:03,    169,    1.0,   10.4,   0.00,   0.00, 1014.9,   99.0, -999.0
01-01-2022, 00:23:13,    169,    0.9,   10.3,   0.00,   0.00, 1014.9,   99.0, -999.0
01-01-2022, 00:23:24,    169,    0.2,   10.2,   0.00,   0.00, 1014.8,   98.8, -999.0
01-01-2022, 00:23:33,    169,    0.0,   10.3,   0.00,   0.00, 1014.7,   98.7, -999.0
01-01-2022, 00:23:43,    169,    0.0,   10.3,   0.00,   0.00, 1014.7,   98.7, -999.0
01-01-2022, 00:23:53,    169,    0.0,   10.3,   0.00,   0.00, 1014.8,   98.6, -999.0
01-01-2022, 00:24:03,    169,    0.0,   10.3,   0.00,   0.00, 1014.7,   98.7, -999.0
01-01-2022, 00:24:13,    169,    0.0,   10.3,   0.00,   0.00, 1014.7,   98.7, -999.0
01-01-2022, 00:24:23,    169,    0.0,   10.3,   0.00,   0.00, 1014.8,   98.7, -999.0
01-01-2022, 00:24:33,    169,    0.0,   10.3,   0.00,   0.00, 1014.8,   98.7, -999.0
01-01-2022, 00:24:43,    169,    0.6,   10.4,   0.00,   0.00, 1014.9,   99.0, -999.0
01-01-2022, 00:24:53,    169,    0.3,   10.4,   0.00,   0.00, 1014.8,   98.9, -999.0
01-01-2022, 00:25:03,    169,    0.0,   10.3,   0.00,   0.00, 1014.8,   98.7, -999.0
01-01-2022, 00:25:13,    169,    0.0,   10.4,   0.00,   0.00, 1014.8,   98.7, -999.0
01-01-2022, 00:25:23,    169,    0.0,   10.3,   0.00,   0.00, 1014.8,   98.7, -999.0
01-01-2022, 00:25:33,    169,    0.4,   10.4,   0.00,   0.00, 1014.9,   99.0, -999.0
01-01-2022, 00:25:42,    169,    0.6,   10.5,   0.00,   0.00, 1014.9,   99.1, -999.0
01-01-2022, 00:25:53,    169,    0.0,   10.4,   0.00,   0.00, 1014.8,   98.8, -999.0
01-01-2022, 00:26:03,    168,    0.0,   10.4,   0.00,   0.00, 1014.8,   98.6, -999.0
01-01-2022, 00:26:12,    169,    0.0,   10.4,   0.00,   0.00, 1014.8,   98.7, -999.0
01-01-2022, 00:26:22,    169,    0.0,   10.4,   0.00,   0.00, 1014.8,   98.7, -999.0
01-01-2022, 00:26:32,    169,    0.6,   10.4,   0.00,   0.00, 1014.9,   99.1, -999.0
01-01-2022, 00:26:42,    169,    1.2,   10.4,   0.00,   0.00, 1014.9,   99.0, -999.0
01-01-2022, 00:26:52,    169,    1.1,   10.4,   0.00,   0.00, 1014.9,   99.0, -999.0
01-01-2022, 00:27:02,    168,    0.7,   10.4,   0.00,   0.00, 1014.9,   99.0, -999.0
01-01-2022, 00:27:12,    168,    0.0,   10.4,   0.00,   0.00, 1014.8,   98.8, -999.0
01-01-2022, 00:27:22,    168,    0.8,   10.4,   0.00,   0.00, 1014.9,   99.1, -999.0
01-01-2022, 00:27:32,    168,    0.2,   10.4,   0.00,   0.00, 1014.9,   98.8, -999.0
01-01-2022, 00:27:42,    167,    0.0,   10.4,   0.00,   0.00, 1014.8,   98.7, -999.0
01-01-2022, 00:27:52,    168,    0.0,   10.4,   0.00,   0.00, 1014.9,   98.9, -999.0
01-01-2022, 00:28:02,    168,    0.0,   10.4,   0.00,   0.00, 1014.8,   98.7, -999.0
01-01-2022, 00:28:12,    168,    0.0,   10.3,   0.00,   0.00, 1014.8,   98.7, -999.0
01-01-2022, 00:28:22,    168,    0.1,   10.4,   0.00,   0.00, 1014.9,   98.8, -999.0
01-01-2022, 00:28:32,    168,    0.0,   10.3,   0.00,   0.00, 1014.8,   98.7, -999.0
01-01-2022, 00:28:41,    168,    0.2,   10.4,   0.00,   0.00, 1014.9,   99.1, -999.0
01-01-2022, 00:28:52,    168,    0.0,   10.4,   0.00,   0.00, 1014.8,   98.6, -999.0
01-01-2022, 00:29:02,    168,    0.0,   10.4,   0.00,   0.00, 1014.8,   98.7, -999.0
01-01-2022, 00:29:11,    168,    0.0,   10.4,   0.00,   0.00, 1014.8,   98.6, -999.0
01-01-2022, 00:29:21,    168,    0.0,   10.4,   0.00,   0.00, 1014.8,   98.7, -999.0
01-01-2022, 00:29:32,    168,    0.0,   10.4,   0.00,   0.00, 1014.8,   98.7, -999.0
01-01-2022, 00:29:41,    168,    0.0,   10.4,   0.00,   0.00, 1014.8,   98.7, -999.0
01-01-2022, 00:29:51,    168,    0.0,   10.4,   0.00,   0.00, 1014.9,   98.7, -999.0
01-01-2022, 00:30:01,    168,    0.0,   10.4,   0.00,   0.00, 1014.9,   98.7, -999.0
01-01-2022, 00:30:11,    168,    0.0,   10.3,   0.00,   0.00, 1014.9,   98.7, -999.0
01-01-2022, 00:30:21,    168,    0.0,   10.3,   0.00,   0.00, 1014.8,   98.6, -999.0
01-01-2022, 00:30:31,    168,    0.1,   10.4,   0.00,   0.00, 1014.9,   98.9, -999.0
01-01-2022, 00:30:41,    168,    0.2,   10.4,   0.00,   0.00, 1014.9,   98.9, -999.0
01-01-2022, 00:30:51,    168,    0.0,   10.4,   0.00,   0.00, 1014.8,   98.6, -999.0
01-01-2022, 00:31:01,    168,    0.0,   10.4,   0.00,   0.00, 1014.9,   98.7, -999.0
01-01-2022, 00:31:11,    168,    1.5,   10.5,   0.00,   0.00, 1015.0,   99.0, -999.0
01-01-2022, 00:31:21,    168,    0.4,   10.4,   0.00,   0.00, 1014.9,   99.0, -999.0
01-01-2022, 00:31:31,    168,    0.0,   10.3,   0.00,   0.00, 1014.8,   98.7, -999.0
01-01-2022, 00:31:41,    168,    0.0,   10.3,   0.00,   0.00, 1014.8,   98.6, -999.0
01-01-2022, 00:31:50,    168,    0.0,   10.3,   0.00,   0.00, 1014.8,   98.6, -999.0
01-01-2022, 00:32:01,    168,    0.0,   10.4,   0.00,   0.00, 1014.8,   98.7, -999.0
01-01-2022, 00:32:11,    168,    0.1,   10.4,   0.00,   0.00, 1014.8,   98.9, -999.0
01-01-2022, 00:32:20,    168,    0.0,   10.4,   0.00,   0.00, 1014.7,   98.7, -999.0
01-01-2022, 00:32:30,    168,    0.0,   10.4,   0.00,   0.00, 1014.8,   98.7, -999.0
01-01-2022, 00:32:41,    168,    0.0,   10.4,   0.00,   0.00, 1014.7,   98.7, -999.0
01-01-2022, 00:32:50,    168,    0.0,   10.4,   0.00,   0.00, 1014.7,   98.7, -999.0
01-01-2022, 00:33:00,    168,    0.3,   10.4,   0.00,   0.00, 1014.8,   98.8, -999.0
01-01-2022, 00:33:10,    168,    0.9,   10.5,   0.00,   0.00, 1014.9,   99.1, -999.0
01-01-2022, 00:33:20,    168,    0.3,   10.5,   0.00,   0.00, 1014.9,   99.0, -999.0
01-01-2022, 00:33:30,    167,    0.0,   10.4,   0.00,   0.00, 1014.8,   98.9, -999.0
01-01-2022, 00:33:40,    167,    0.0,   10.3,   0.00,   0.00, 1014.7,   98.7, -999.0
01-01-2022, 00:33:50,    168,    0.0,   10.3,   0.00,   0.00, 1014.7,   98.7, -999.0
01-01-2022, 00:34:00,    167,    0.0,   10.4,   0.00,   0.00, 1014.7,   98.7, -999.0
01-01-2022, 00:34:10,    167,    0.0,   10.3,   0.00,   0.00, 1014.7,   98.7, -999.0
01-01-2022, 00:34:20,    165,    0.6,   10.4,   0.00,   0.00, 1014.8,   98.9, -999.0
01-01-2022, 00:34:30,    165,    1.2,   10.5,   0.00,   0.00, 1014.9,   99.2, -999.0
01-01-2022, 00:34:40,    163,    1.0,   10.5,   0.00,   0.00, 1014.9,   99.0, -999.0
01-01-2022, 00:34:50,    163,    0.5,   10.5,   0.00,   0.00, 1014.8,   99.1, -999.0
01-01-2022, 00:34:59,    163,    0.0,   10.4,   0.00,   0.00, 1014.8,   98.7, -999.0
01-01-2022, 00:35:10,    162,    0.2,   10.5,   0.00,   0.00, 1014.8,   98.9, -999.0
01-01-2022, 00:35:20,    163,    0.7,   10.5,   0.00,   0.00, 1014.9,   99.0, -999.0
01-01-2022, 00:35:29,    162,    1.0,   10.5,   0.00,   0.00, 1014.9,   99.1, -999.0
01-01-2022, 00:35:39,    163,    0.4,   10.4,   0.00,   0.00, 1014.9,   99.1, -999.0
01-01-2022, 00:35:49,    162,    0.8,   10.4,   0.00,   0.00, 1014.9,   99.0, -999.0
01-01-2022, 00:35:59,    162,    0.7,   10.5,   0.00,   0.00, 1014.9,   99.0, -999.0
01-01-2022, 00:36:09,    162,    0.5,   10.4,   0.00,   0.00, 1014.8,   98.9, -999.0
01-01-2022, 00:36:19,    157,    1.2,   10.5,   0.00,   0.00, 1014.9,   99.1, -999.0
01-01-2022, 00:36:29,    157,    0.6,   10.5,   0.00,   0.00, 1014.8,   99.0, -999.0
01-01-2022, 00:36:39,    157,    0.7,   10.5,   0.00,   0.00, 1014.9,   99.0, -999.0
01-01-2022, 00:36:49,    157,    0.2,   10.4,   0.00,   0.00, 1014.8,   98.9, -999.0
01-01-2022, 00:36:59,    157,    0.0,   10.4,   0.00,   0.00, 1014.7,   98.6, -999.0
01-01-2022, 00:37:09,    157,    0.0,   10.3,   0.00,   0.00, 1014.7,   98.7, -999.0
01-01-2022, 00:37:19,    157,    0.0,   10.4,   0.00,   0.00, 1014.7,   98.6, -999.0
01-01-2022, 00:37:29,    157,    0.0,   10.4,   0.00,   0.00, 1014.7,   98.7, -999.0
01-01-2022, 00:37:39,    157,    0.0,   10.4,   0.00,   0.00, 1014.7,   98.6, -999.0
01-01-2022, 00:37:49,    156,    0.0,   10.4,   0.00,   0.00, 1014.7,   98.7, -999.0
01-01-2022, 00:37:59,    157,    0.0,   10.4,   0.00,   0.00, 1014.7,   98.6, -999.0
01-01-2022, 00:38:08,    200,    0.0,   10.4,   0.00,   0.00, 1014.7,   98.8, -999.0
01-01-2022, 00:38:19,    200,    0.0,   10.4,   0.00,   0.00, 1014.7,   98.7, -999.0
01-01-2022, 00:38:28,    199,    0.0,   10.5,   0.00,   0.00, 1014.7,   98.7, -999.0
01-01-2022, 00:38:38,    200,    0.0,   10.5,   0.00,   0.00, 1014.6,   98.6, -999.0
01-01-2022, 00:38:48,    199,    0.0,   10.4,   0.00,   0.00, 1014.6,   98.6, -999.0
01-01-2022, 00:38:58,    199,    0.2,   10.5,   0.00,   0.00, 1014.8,   98.9, -999.0
01-01-2022, 00:39:08,    200,    0.4,   10.5,   0.00,   0.00, 1014.8,   98.9, -999.0
01-01-2022, 00:39:18,    199,    0.8,   10.5,   0.00,   0.00, 1014.7,   99.0, -999.0
01-01-2022, 00:39:28,    199,    0.2,   10.5,   0.00,   0.00, 1014.7,   98.9, -999.0
01-01-2022, 00:39:38,    199,    0.0,   10.4,   0.00,   0.00, 1014.6,   98.6, -999.0
01-01-2022, 00:39:48,    199,    0.0,   10.4,   0.00,   0.00, 1014.6,   98.7, -999.0
01-01-2022, 00:39:58,    200,    0.0,   10.5,   0.00,   0.00, 1014.6,   98.7, -999.0
01-01-2022, 00:40:08,    199,    0.0,   10.4,   0.00,   0.00, 1014.6,   98.6, -999.0
01-01-2022, 00:40:18,    199,    0.2,   10.4,   0.00,   0.00, 1014.7,   99.1, -999.0
01-01-2022, 00:40:28,    199,    0.5,   10.5,   0.00,   0.00, 1014.7,   99.0, -999.0
01-01-2022, 00:40:38,    198,    0.5,   10.5,   0.00,   0.00, 1014.7,   99.0, -999.0
01-01-2022, 00:40:48,    198,    0.4,   10.5,   0.00,   0.00, 1014.7,   99.2, -999.0
01-01-2022, 00:40:58,    198,    0.5,   10.5,   0.00,   0.00, 1014.7,   99.0, -999.0
01-01-2022, 00:41:07,    197,    0.6,   10.5,   0.00,   0.00, 1014.7,   99.0, -999.0
01-01-2022, 00:41:18,    197,    0.0,   10.4,   0.00,   0.00, 1014.6,   98.7, -999.0
01-01-2022, 00:41:28,    197,    0.0,   10.4,   0.00,   0.00, 1014.6,   98.6, -999.0
01-01-2022, 00:41:37,    197,    0.7,   10.5,   0.00,   0.00, 1014.7,   99.0, -999.0
01-01-2022, 00:41:47,    197,    0.5,   10.5,   0.00,   0.00, 1014.7,   99.0, -999.0
01-01-2022, 00:41:58,    197,    0.0,   10.3,   0.00,   0.00, 1014.6,   98.7, -999.0
01-01-2022, 00:42:07,    197,    0.0,   10.4,   0.00,   0.00, 1014.6,   98.7, -999.0
01-01-2022, 00:42:17,    197,    0.0,   10.4,   0.00,   0.00, 1014.6,   98.7, -999.0
01-01-2022, 00:42:27,    197,    0.5,   10.4,   0.00,   0.00, 1014.7,   99.0, -999.0
01-01-2022, 00:42:37,    197,    0.7,   10.5,   0.00,   0.00, 1014.8,   99.2, -999.0
01-01-2022, 00:42:47,    197,    0.5,   10.5,   0.00,   0.00, 1014.7,   99.0, -999.0
01-01-2022, 00:42:57,    197,    0.5,   10.5,   0.00,   0.00, 1014.7,   99.0, -999.0
01-01-2022, 00:43:07,    196,    0.4,   10.5,   0.00,   0.00, 1014.7,   99.0, -999.0
01-01-2022, 00:43:17,    196,    0.0,   10.4,   0.00,   0.00, 1014.5,   98.6, -999.0
01-01-2022, 00:43:27,    197,    0.0,   10.4,   0.00,   0.00, 1014.6,   98.6, -999.0
01-01-2022, 00:43:37,    196,    0.0,   10.4,   0.00,   0.00, 1014.6,   98.7, -999.0
01-01-2022, 00:43:47,    197,    0.0,   10.4,   0.00,   0.00, 1014.6,   98.7, -999.0
01-01-2022, 00:43:57,    196,    0.0,   10.4,   0.00,   0.00, 1014.6,   98.6, -999.0
01-01-2022, 00:44:07,    197,    0.0,   10.5,   0.00,   0.00, 1014.6,   98.7, -999.0
01-01-2022, 00:44:16,    197,    0.0,   10.4,   0.00,   0.00, 1014.6,   98.7, -999.0
01-01-2022, 00:44:27,    196,    0.0,   10.4,   0.00,   0.00, 1014.6,   98.7, -999.0
01-01-2022, 00:44:37,    197,    0.0,   10.5,   0.00,   0.00, 1014.6,   98.6, -999.0
01-01-2022, 00:44:46,    197,    0.0,   10.5,   0.00,   0.00, 1014.6,   98.7, -999.0
01-01-2022, 00:44:56,    197,    0.0,   10.5,   0.00,   0.00, 1014.6,   98.6, -999.0
01-01-2022, 00:45:07,    196,    0.0,   10.5,   0.00,   0.00, 1014.6,   98.8, -999.0
01-01-2022, 00:45:16,    196,    0.0,   10.3,   0.00,   0.00, 1014.6,   98.6, -999.0
01-01-2022, 00:45:26,    197,    0.0,   10.5,   0.00,   0.00, 1014.5,   98.6, -999.0
01-01-2022, 00:45:36,    197,    0.0,   10.5,   0.00,   0.00, 1014.6,   98.6, -999.0
01-01-2022, 00:45:46,    196,    0.5,   10.5,   0.00,   0.00, 1014.6,   99.1, -999.0
01-01-2022, 00:45:56,    196,    0.0,   10.5,   0.00,   0.00, 1014.6,   98.7, -999.0
01-01-2022, 00:46:06,    196,    0.0,   10.5,   0.00,   0.00, 1014.6,   98.7, -999.0
01-01-2022, 00:46:16,    157,    1.0,   10.5,   0.00,   0.00, 1014.7,   99.1, -999.0
01-01-2022, 00:46:26,    156,    0.2,   10.5,   0.00,   0.00, 1014.6,   98.8, -999.0
01-01-2022, 00:46:36,    157,    0.0,   10.5,   0.00,   0.00, 1014.5,   98.7, -999.0